This is the latest recevied weather packets stored in our database for station/object YU7OR-2. If no packets are shown the sender has not sent any weather packets the latest 10 day(s).
| Time | Temp. | Humidity | Pressure | Rain* | Wind** | Luminosity | Snow |
|---|---|---|---|---|---|---|---|
| 1777657539 | 14.44° C | 50% | 1020.8 hPa | 0 mm | - | - | - |
| 1777657299 | 14.44° C | 50% | 1020.8 hPa | 0 mm | - | - | - |
| 1777657049 | 15° C | 52% | 1020.9 hPa | 0 mm | - | - | - |
| 1777656789 | 15° C | 56% | 1020.9 hPa | 0 mm | - | - | - |
| 1777656509 | 15° C | 55% | 1020.9 hPa | 0 mm | - | - | - |
| 1777656269 | 15° C | 55% | 1021 hPa | 0 mm | - | - | - |
| 1777655996 | 15.56° C | 54% | 1020.7 hPa | 0 mm | - | - | - |
| 1777655724 | 15.56° C | 54% | 1021 hPa | 0 mm | - | - | - |
| 1777655429 | 16.11° C | 53% | 1020.9 hPa | 0 mm | - | - | - |
| 1777655134 | 16.11° C | 53% | 1020.7 hPa | 0 mm | - | - | - |
| 1777654877 | 16.11° C | 52% | 1020.7 hPa | 0 mm | - | - | - |
| 1777654614 | 16.67° C | 51% | 1020.9 hPa | 0 mm | - | - | - |
| 1777654374 | 16.67° C | 51% | 1020.9 hPa | 0 mm | - | - | - |
| 1777654112 | 16.67° C | 49% | 1020.9 hPa | 0 mm | - | - | - |
| 1777653829 | 16.67° C | 48% | 1020.9 hPa | 0 mm | - | - | - |
| 1777653554 | 17.22° C | 47% | 1020.9 hPa | 0 mm | - | - | - |
| 1777653284 | 17.78° C | 48% | 1021 hPa | 0 mm | - | - | - |
| 1777653044 | 17.78° C | 47% | 1021 hPa | 0 mm | - | - | - |
| 1777652749 | 18.33° C | 48% | 1021.2 hPa | 0 mm | - | - | - |
| 1777652459 | 18.33° C | 48% | 1021 hPa | 0 mm | - | - | - |
| 1777652194 | 18.89° C | 48% | 1021.1 hPa | 0 mm | - | - | - |
| 1777651924 | 18.89° C | 48% | 1021.1 hPa | 0 mm | - | - | - |
| 1777651679 | 18.89° C | 48% | 1021.2 hPa | 0 mm | - | - | - |
| 1777651394 | 18.89° C | 48% | 1021 hPa | 0 mm | - | - | - |
| 1777651129 | 18.89° C | 47% | 1021.2 hPa | 0 mm | - | - | - |
* Rain latest hour (hover to see other rain measurements)
** Current wind speed in m/s (hover to see current wind gust speed)